Sacramento, CA

5:17 PM PDT on August 31, 2016 (GMT -0700)
Sacramento International

Weather History for KSMF - December, 2012

Change the Weather History Date:

Saturday, December 29, 2012

  Actual Average Record
Temperature  
Mean Temperature 46 °F -  
Max Temperature 53 °F 53 °F 72 °F (1989)
Min Temperature 37 °F 36 °F 24 °F (1962)
Degree Days  
Heating Degree Days 19    
Moisture  
Dew Point 39 °F    
Average Humidity 83    
Maximum Humidity 96    
Minimum Humidity 62    
Precipitation  
Precipitation 0.00 in - - ()
Sea Level Pressure  
Sea Level Pressure 30.06 in    
Wind  
Wind Speed 7 mph (NW)    
Max Wind Speed 16 mph    
Max Gust Speed -    
Visibility 10 miles    
Events      
Averages and records for this station are not official NWS values.
T = Trace of Precipitation, MM = Missing Value Source: NWS Daily Summary

Daily Weather History Graph

Daily Weather History Graph

Search for Another Location

Airport or City:

Trip Planner

Search our weather history database for the weather conditions in past years. The results will help you decide how hot, cold, wet, or windy it might be!

Date:

Astronomy

Dec. 29, 2012 Rise Set
Actual Time 7:23 AM PST 4:53 PM PST
Civil Twilight 6:54 AM PST 5:23 PM PST
Nautical Twilight 6:20 AM PST 5:56 PM PST
Astronomical Twilight 5:48 AM PST 6:29 PM PST
Moon 6:30 PM PST (12/29) 8:01 AM PST (12/29)
Length of Visible Light 10h 29m
Length of Day
9h 29m
Full, 98% of the Moon is Illuminated
Dec 29
Full
Jan 4
Last Quarter
Jan 11
New
Jan 18
First Quarter
Jan 26
Full

Hourly Weather History & Observations

Time (PST) Temp. Windchill Dew Point Humidity Pressure Visibility Wind Dir Wind Speed Gust Speed Precip Events Conditions
12:53 AM 41.0 °F 35.2 °F 39.0 °F 93% 30.08 in 10.0 mi NW 9.2 mph - N/A   Overcast
1:53 AM 41.0 °F 35.2 °F 39.0 °F 93% 30.07 in 10.0 mi NNW 9.2 mph - N/A   Mostly Cloudy
2:53 AM 39.9 °F 34.5 °F 37.9 °F 93% 30.08 in 10.0 mi NNW 8.1 mph - N/A   Overcast
3:53 AM 39.2 °F 34.2 °F 37.4 °F 93% 30.07 in 10.0 mi NW 6.9 mph - N/A   Mostly Cloudy
4:53 AM 39.0 °F - 37.9 °F 96% 30.06 in 10.0 mi Calm Calm - N/A   Mostly Cloudy
5:53 AM 39.9 °F 34.5 °F 37.9 °F 93% 30.07 in 10.0 mi NNW 8.1 mph - N/A   Overcast
6:53 AM 41.0 °F 37.1 °F 37.9 °F 89% 30.07 in 10.0 mi North 5.8 mph - N/A   Overcast
7:53 AM 41.0 °F 37.1 °F 37.9 °F 89% 30.07 in 10.0 mi NNW 5.8 mph - N/A   Overcast
8:53 AM 42.1 °F 37.7 °F 39.0 °F 89% 30.08 in 10.0 mi NNW 6.9 mph - N/A   Overcast
9:53 AM 44.1 °F 39.0 °F 39.0 °F 82% 30.08 in 10.0 mi NNW 9.2 mph - N/A   Partly Cloudy
10:53 AM 46.0 °F 41.0 °F 39.9 °F 79% 30.07 in 10.0 mi NNW 10.4 mph - N/A   Mostly Cloudy
11:53 AM 48.0 °F - 41.0 °F 77% 30.05 in 10.0 mi NNW 16.1 mph - N/A   Overcast
12:53 PM 48.9 °F - 41.0 °F 74% 30.04 in 10.0 mi NW 12.7 mph - N/A   Overcast
1:53 PM 52.0 °F - 41.0 °F 66% 30.02 in 10.0 mi NNW 10.4 mph - N/A   Scattered Clouds
2:53 PM 53.6 °F - 41.0 °F 62% 30.02 in 10.0 mi NNW 8.1 mph - N/A   Clear
3:53 PM 52.0 °F - 41.0 °F 66% 30.02 in 10.0 mi NNW 8.1 mph - N/A   Clear
4:53 PM 48.0 °F - 39.0 °F 71% 30.02 in 10.0 mi NNW 4.6 mph - N/A   Clear
5:53 PM 46.9 °F - 39.9 °F 77% 30.02 in 10.0 mi Calm Calm - N/A   Clear
6:53 PM 46.9 °F - 37.9 °F 71% 30.03 in 10.0 mi SSE 3.5 mph - N/A   Clear
7:53 PM 43.0 °F 41.3 °F 39.0 °F 86% 30.06 in 10.0 mi West 3.5 mph - N/A   Partly Cloudy
8:53 PM 45.0 °F 41.8 °F 39.0 °F 80% 30.07 in 10.0 mi West 5.8 mph - N/A   Partly Cloudy
9:53 PM 42.1 °F - 37.0 °F 82% 30.06 in 10.0 mi Calm Calm - N/A   Partly Cloudy
10:53 PM 39.9 °F 37.8 °F 37.0 °F 89% 30.08 in 10.0 mi WSW 3.5 mph - N/A   Clear
11:53 PM 37.9 °F 34.4 °F 36.0 °F 93% 30.07 in 10.0 mi WSW 4.6 mph - N/A   Clear